[[{"header":{"parameterUnit":"m.s-1","parameterCategory":1,"la1":30.2991,"la2":30.254,"lo1":-89.0895,"lo2":-89.0444,"dy":0.0017,"dx":0.0017,"nx":28,"ny":28,"refTime":"2024-04-10T21:00:00:Z","depth":0,"parameterNumber":2,"parameterNumberName":"U-component_of_WINDS"},"data":[0,0,0,0,0,0,0,0,0,0,0,0,0,0,0,0,0,0,0,0,0,0,0,0,0,0,0,0,0,0,0,0,0,0,0,0,0,0,0,0,0,0,0,0,0,0,0,0,0,0,0,0,0,0,0,0,0,0,9.549,9.5493,0,9.5725,9.5728,9.573,9.5632,9.5626,9.562,9.5615,9.5859,9.587,9.5882,0,0,0,0,0,0,0,0,0,0,0,0,0,9.4959,9.4969,9.549,9.5493,9.5496,9.5724,9.5728,9.5731,9.5633,9.5626,9.5619,9.5612,9.5855,9.5869,9.5883,0,0,0,0,0,0,0,0,0,0,0,0,0,9.5191,9.4972,9.549,9.5474,9.5475,9.5724,9.5728,9.5732,9.5634,9.5625,9.5617,9.5609,9.585,9.5868,9.5885,9.6163,0,0,9.5939,9.5946,0,0,0,0,0,0,0,0,9.5178,9.5211,9.5474,9.5476,9.5477,9.564,9.563,9.5877,9.5636,9.5574,9.5615,9.5605,9.5793,9.5815,9.5878,9.6175,9.6185,9.594,9.5951,9.5959,9.5964,0,0,0,0,0,0,0,9.5162,9.52,9.5583,9.5478,9.548,9.5456,9.548,9.5676,9.5728,9.5579,9.5572,9.5601,9.5793,9.5861,9.5883,9.6189,9.594,9.5956,9.5966,9.5973,9.6725,9.6734,0,0,0,0,0,0,9.5146,9.5187,9.5575,9.559,9.5304,9.5473,9.5499,9.5597,9.5726,9.5737,9.5608,9.5595,9.5835,9.5862,9.5891,9.6225,9.5959,9.5975,9.5985,9.6716,9.6727,9.6737,0,0,0,0,0,0,9.5135,9.5181,9.5566,9.5387,9.5434,9.5491,9.5601,9.5606,9.5674,9.5748,9.5757,9.5668,9.5829,9.5866,9.6096,9.6232,9.5983,9.5999,9.6705,9.6719,9.6732,9.6896,0,0,0,0,0,0,9.512,9.5178,9.5284,9.539,9.5444,9.5767,9.5609,9.5616,9.5704,9.569,9.5807,9.5818,9.5826,9.607,9.6114,9.6252,9.6013,9.6693,9.6711,9.6728,9.6879,9.6914,9.6944,0,0,0,0,0,9.5101,9.5322,9.529,9.5337,9.5578,9.5775,9.5806,9.5809,9.5715,9.5823,9.587,9.5814,9.621,9.6095,9.6142,9.6288,9.6684,9.6706,9.6727,9.6864,9.6907,9.6943,0,0,0,0,0,0,9.5231,9.5335,9.5301,9.5562,9.5661,9.5758,9.5894,9.5855,9.5983,9.5964,9.5963,9.5991,9.6228,9.6281,9.615,9.6564,9.6433,9.6465,9.6521,9.6563,9.6595,9.6578,9.6027,0,0,0,0,0,9.529,9.5441,9.5524,9.5746,9.5797,9.5837,9.5923,9.5917,9.6019,9.606,9.6125,9.6227,9.6374,9.6471,9.661,9.6885,9.6909,9.7009,9.7042,9.7068,9.7096,9.7245,9.729,9.6807,9.6807,9.6806,0,0,9.5414,9.5489,9.5585,9.5774,9.585,9.6006,9.5873,9.6045,9.6161,9.6087,9.6307,9.6358,9.6472,9.6725,9.684,9.6777,9.7235,9.7095,9.7116,9.713,9.7271,9.7317,9.7358,9.6821,9.6819,9.6816,0,0,9.572,9.5792,9.5985,9.6062,9.6177,9.6202,9.6248,9.6352,9.6383,9.6603,9.6551,9.6689,9.6943,9.7026,9.7101,9.7437,9.739,9.7482,9.7654,9.7799,9.7837,9.7871,9.799,9.8033,9.7509,9.751,9.751,0,9.5859,9.6093,9.6089,9.6265,9.635,9.6288,9.6484,9.6559,9.6715,9.6776,9.6701,9.7017,9.709,9.7362,9.7443,9.7506,9.7559,9.747,9.7831,9.7865,9.7897,9.8011,9.8056,9.752,9.7519,9.7518,9.7517,0,9.6259,9.6421,9.6563,9.6714,9.6814,9.6999,9.7024,9.7127,9.7111,9.7144,9.737,9.7454,9.7609,9.7673,9.766,9.7943,9.79,9.7829,9.7698,9.7953,9.8061,9.8104,9.7535,9.7532,9.7528,9.7526,0,0,9.6655,9.6799,9.6852,9.6919,9.704,9.7166,9.7348,9.7498,9.7586,9.7695,9.7848,9.8063,9.7997,9.8083,9.8079,9.8206,9.8466,9.812,9.8122,9.8181,9.8783,9.8836,9.8887,9.8435,9.8444,9.845,9.8773,0,9.697,9.7288,9.729,9.7583,9.7733,9.7676,9.7834,9.7926,9.7961,9.8094,9.8133,9.8285,9.8187,9.8239,9.8362,9.8409,9.8587,9.8385,9.8578,9.8585,9.8552,9.8943,9.9,9.9301,9.8815,9.8822,9.8828,0,9.7381,9.7502,9.781,9.7908,9.7971,9.8114,9.8251,9.8378,9.8481,9.8498,9.8593,9.8568,9.8754,9.8615,9.8871,9.8734,9.8812,9.8847,9.8859,9.8878,9.8723,9.8973,9.9397,9.9443,9.8894,9.8888,9.8884,0,9.764,9.788,9.8094,9.8153,9.8274,9.8375,9.843,9.8524,9.8614,9.8734,9.8792,9.8933,9.901,9.912,9.9134,9.9032,9.9391,9.9254,9.9411,9.9411,9.949,9.9485,9.9934,9.954,9.9539,9.9539,9.9538,0,9.7993,9.8184,9.8212,9.8345,9.8557,9.8556,9.8766,9.8812,9.8897,9.9037,9.8996,9.9129,9.9139,9.9276,9.9289,9.9498,9.9534,9.9552,9.9554,9.9557,9.9555,9.9609,9.9589,9.9551,9.9548,9.9546,9.9543,0,9.8319,9.8345,9.8576,9.867,9.8698,9.885,9.8931,9.9057,9.9087,9.9265,9.9307,9.9355,9.9514,9.9538,9.9725,9.9733,9.9985,9.9964,9.995,9.9947,10.0103,10.0088,10.0603,10.067,10.0232,10.0236,10.024,0,9.8543,9.8688,9.8797,9.8888,9.8947,9.9094,9.9185,9.9189,9.9286,9.9413,9.9524,9.9678,9.9802,10.0058,10.011,10.0252,10.0235,10.0405,10.0256,10.0254,10.0238,10.0229,10.0244,10.0435,10.0439,10.0443,10.0446,0,9.8938,9.8943,9.9075,9.9212,9.9321,9.9429,9.9532,9.9608,9.9626,9.9736,9.9897,9.9993,10.0182,10.0336,10.0476,10.0533,10.0494,10.0492,10.0536,10.0542,10.0527,10.0537,10.0029,10.0481,10.0478,10.0475,10.0473,10.0472,9.922,9.9346,9.9442,9.959,9.9667,9.9763,9.9886,9.993,10.0064,10.0218,10.0212,10.0389,10.0486,10.0671,10.0737,10.0876,10.0821,10.0884,10.09,10.0916,10.0931,10.0504,10.0901,10.09,10.09,10.0899,10.0898,0,9.9613,9.9671,9.9807,9.9951,10.0067,10.0017,10.0127,10.0228,10.0384,10.0477,10.0599,10.0784,10.0932,10.0994,10.1139,10.1238,10.1224,10.1277,10.127,10.1283,10.0972,10.092,10.1286,10.1286,10.1286,10.1286,10.1285,10.1285,9.9832,10.0042,10.0058,10.0306,10.0363,10.0535,10.0602,10.069,10.0764,10.0972,10.1094,10.1133,10.1214,10.1364,10.1498,10.1512,10.1568,10.1629,10.1636,10.1345,10.1305,10.1268,10.1219,10.1641,10.1642,10.1935,10.1938,10.194]},{"header":{"parameterUnit":"m.s-1","parameterCategory":1,"la1":30.2991,"la2":30.254,"lo1":-89.0895,"lo2":-89.0444,"dy":0.0017,"dx":0.0017,"nx":28,"ny":28,"refTime":"2024-04-10T21:00:00:Z","depth":0,"parameterNumber":3,"parameterNumberName":"V-component_of_WINDS"},"data":[0,0,0,0,0,0,0,0,0,0,0,0,0,0,0,0,0,0,0,0,0,0,0,0,0,0,0,0,0,0,0,0,0,0,0,0,0,0,0,0,0,0,0,0,0,0,0,0,0,0,0,0,0,0,0,0,0,0,0.0356,0.0356,0,0.0391,0.0392,0.0392,0.0405,0.0405,0.0405,0.0405,0.0443,0.0444,0.0445,0,0,0,0,0,0,0,0,0,0,0,0,0,0.0302,0.0303,0.0356,0.0356,0.0357,0.0391,0.0392,0.0392,0.0405,0.0405,0.0405,0.0405,0.0442,0.0443,0.0445,0,0,0,0,0,0,0,0,0,0,0,0,0,0.033,0.0303,0.0356,0.0368,0.0369,0.0391,0.0392,0.0392,0.0405,0.0405,0.0405,0.0405,0.0442,0.0443,0.0445,0.0458,0,0,0.045,0.0451,0,0,0,0,0,0,0,0,0.0328,0.0332,0.0365,0.0367,0.0368,0.0394,0.0386,0.0414,0.0406,0.0392,0.0405,0.0405,0.0427,0.0429,0.0436,0.046,0.0462,0.045,0.0451,0.0452,0.0452,0,0,0,0,0,0,0,0.0326,0.0331,0.037,0.0366,0.0368,0.0372,0.0375,0.0392,0.041,0.0393,0.0394,0.0398,0.0427,0.0435,0.0437,0.0462,0.045,0.0452,0.0453,0.0453,0.0499,0.0499,0,0,0,0,0,0,0.0322,0.0329,0.0369,0.0371,0.0348,0.0373,0.0377,0.0386,0.0409,0.0413,0.0398,0.0398,0.0432,0.0435,0.0439,0.0456,0.0452,0.0453,0.0454,0.0498,0.0499,0.0499,0,0,0,0,0,0,0.0321,0.0326,0.0367,0.035,0.0356,0.0374,0.0384,0.0387,0.0394,0.0413,0.0417,0.0402,0.0432,0.0436,0.0453,0.0457,0.0454,0.0456,0.0498,0.0499,0.0499,0.049,0,0,0,0,0,0,0.0319,0.0325,0.033,0.035,0.0357,0.0381,0.0384,0.0387,0.0397,0.0398,0.0418,0.0421,0.0432,0.0451,0.0455,0.046,0.0457,0.0498,0.0498,0.0499,0.049,0.049,0.049,0,0,0,0,0,0.0317,0.0327,0.033,0.0335,0.0363,0.0381,0.0385,0.0397,0.0397,0.0402,0.0415,0.0421,0.0456,0.0452,0.0457,0.0462,0.0498,0.0498,0.0499,0.049,0.049,0.049,0,0,0,0,0,0,0.0307,0.0329,0.0334,0.035,0.0363,0.0383,0.039,0.0396,0.0411,0.0411,0.0425,0.043,0.0446,0.0456,0.0451,0.0477,0.0477,0.0479,0.0469,0.047,0.047,0.0467,0.0458,0,0,0,0,0,0.0307,0.0319,0.0338,0.035,0.0357,0.0372,0.0381,0.0389,0.0403,0.0409,0.0423,0.0438,0.0452,0.0461,0.0476,0.0492,0.0497,0.0498,0.0498,0.0498,0.0499,0.0508,0.0509,0.0501,0.0501,0.0501,0,0,0.0306,0.032,0.0327,0.0348,0.036,0.0373,0.0377,0.0391,0.04,0.0412,0.0428,0.0439,0.0456,0.0472,0.048,0.0481,0.0502,0.0498,0.0498,0.05,0.0509,0.051,0.051,0.0501,0.0501,0.0501,0,0,0.0311,0.0322,0.0334,0.0345,0.0362,0.0373,0.0375,0.0395,0.0402,0.0418,0.0427,0.0439,0.0464,0.0476,0.0485,0.0495,0.0501,0.0499,0.0499,0.0508,0.0509,0.051,0.0513,0.0514,0.05,0.05,0.05,0,0.0308,0.0327,0.0339,0.0352,0.0361,0.0372,0.0384,0.0394,0.0415,0.0422,0.0423,0.0454,0.0466,0.0485,0.0488,0.0495,0.0499,0.0497,0.0508,0.0509,0.0509,0.0513,0.0514,0.05,0.05,0.05,0.05,0,0.0323,0.0336,0.0343,0.0363,0.0373,0.0385,0.04,0.0409,0.0416,0.0426,0.0443,0.0458,0.0476,0.0481,0.0488,0.0502,0.0502,0.0505,0.0506,0.051,0.0513,0.0515,0.0499,0.0499,0.05,0.05,0,0,0.0322,0.0348,0.0351,0.036,0.038,0.039,0.0403,0.042,0.0428,0.0442,0.0453,0.0474,0.0477,0.0487,0.0496,0.0504,0.051,0.0506,0.0507,0.0506,0.0526,0.0524,0.0525,0.0515,0.0515,0.0515,0.0525,0,0.033,0.0353,0.0364,0.0383,0.0395,0.0405,0.0417,0.043,0.044,0.0453,0.0464,0.0478,0.0481,0.0487,0.0495,0.0508,0.0515,0.0507,0.0526,0.0526,0.0521,0.0527,0.0525,0.0533,0.0526,0.0527,0.0527,0,0.0343,0.0356,0.0376,0.0394,0.04,0.041,0.0426,0.0438,0.0453,0.046,0.0471,0.048,0.0494,0.0494,0.0514,0.0509,0.0517,0.0524,0.0525,0.0527,0.0527,0.053,0.0536,0.0538,0.0529,0.0529,0.0529,0,0.0341,0.0364,0.0379,0.0386,0.0408,0.0415,0.0424,0.0439,0.0449,0.0463,0.0469,0.0485,0.0494,0.0507,0.0519,0.0518,0.0538,0.0539,0.0545,0.0544,0.0549,0.0548,0.0557,0.0554,0.0554,0.0554,0.0554,0,0.0348,0.036,0.0378,0.0387,0.0401,0.0413,0.0426,0.0437,0.045,0.0462,0.0472,0.0482,0.0498,0.0511,0.0521,0.0536,0.054,0.0546,0.0549,0.0545,0.0545,0.0551,0.0551,0.0554,0.0554,0.0554,0.0554,0,0.0349,0.0361,0.0378,0.0397,0.0402,0.0411,0.0427,0.0437,0.0447,0.0462,0.0466,0.0482,0.0498,0.0511,0.0532,0.0539,0.0554,0.0558,0.0549,0.055,0.0555,0.0555,0.0568,0.0571,0.0566,0.0566,0.0566,0,0.0353,0.0362,0.0382,0.039,0.0399,0.0412,0.0422,0.0435,0.0444,0.0463,0.047,0.0486,0.05,0.0524,0.0538,0.0554,0.0558,0.0561,0.056,0.0557,0.0558,0.0557,0.0558,0.0561,0.0561,0.0561,0.0561,0,0.0359,0.0365,0.0378,0.0393,0.0404,0.0417,0.043,0.0436,0.0452,0.0462,0.0478,0.0488,0.0509,0.0525,0.0543,0.0553,0.056,0.0561,0.0564,0.056,0.0555,0.0558,0.0549,0.0561,0.0561,0.0561,0.0561,0.0561,0.0361,0.037,0.0385,0.04,0.0411,0.0423,0.0432,0.0444,0.0457,0.0475,0.0482,0.0498,0.0514,0.0537,0.0548,0.0561,0.0562,0.0565,0.0566,0.0566,0.0566,0.0553,0.0564,0.0564,0.0564,0.0564,0.0564,0,0.0368,0.0378,0.0391,0.0409,0.0421,0.0426,0.044,0.045,0.0464,0.0477,0.049,0.0509,0.0524,0.0539,0.0556,0.0563,0.0567,0.0567,0.0567,0.0569,0.0564,0.056,0.0564,0.0564,0.0564,0.0564,0.0564,0.0564,0.0373,0.0388,0.0395,0.0416,0.0426,0.0442,0.045,0.0461,0.0472,0.0492,0.0505,0.0514,0.0529,0.0546,0.0561,0.0565,0.0571,0.057,0.0575,0.057,0.057,0.0569,0.0566,0.0571,0.0571,0.0579,0.058,0.058]}]]